| time (UTC) | temp F | wind direction | speed MPH | gust MPH | rain 1hr in | rain 24hr in | rain mn in | humidity % | barometer mb |
| 20260509194930 | 60 | 11 | 0.0 | 1.0 | 0.00 | 0.00 | 0.00 | 69 | 1012.4 |
| 20260509194403 | 61 | 11 | 0.0 | 1.0 | 0.00 | 0.00 | 0.00 | 68 | 1012.5 |
| 20260509193902 | 62 | 11 | 0.0 | 1.0 | 0.00 | 0.00 | 0.00 | 67 | 1012.4 |
| 20260509193331 | 63 | 11 | 0.0 | 2.0 | 0.00 | 0.00 | 0.00 | 67 | 1012.4 |
| 20260509192831 | 63 | 11 | 0.0 | 2.0 | 0.00 | 0.00 | 0.00 | 62 | 1012.3 |
| 20260509192306 | 64 | 1 | 0.0 | 2.0 | 0.00 | 0.00 | 0.00 | 63 | 1012.2 |
| 20260509191803 | 64 | 1 | 1.0 | 2.0 | 0.00 | 0.00 | 0.00 | 58 | 1012.1 |
| 20260509191520 | 64 | 72 | 1.0 | 2.0 | 0.00 | 0.00 | 0.00 | 57 | 1012.2 |
| 20260509190802 | 64 | 51 | 1.0 | 4.0 | 0.00 | 0.00 | 0.00 | 57 | 1012.2 |
| 20260509190304 | 65 | 72 | 1.0 | 4.0 | 0.00 | 0.00 | 0.00 | 57 | 1012.1 |
| 20260509185733 | 65 | 25 | 1.0 | 3.0 | 0.00 | 0.00 | 0.00 | 57 | 1012.2 |
| 20260509185227 | 65 | 359 | 1.0 | 3.0 | 0.00 | 0.00 | 0.00 | 57 | 1012.2 |
| 20260509184721 | 65 | 0 | 1.0 | 3.0 | 0.00 | 0.00 | 0.00 | 56 | 1012.3 |
| 20260509184211 | 66 | 72 | 1.0 | 3.0 | 0.00 | 0.00 | 0.00 | 56 | 1012.2 |
| 20260509183704 | 66 | 352 | 1.0 | 3.0 | 0.00 | 0.00 | 0.00 | 55 | 1012.2 |
| 20260509183139 | 66 | 343 | 1.0 | 3.0 | 0.00 | 0.00 | 0.00 | 55 | 1012.0 |
| 20260509182631 | 67 | 13 | 1.0 | 3.0 | 0.00 | 0.00 | 0.00 | 54 | 1012.0 |
| 20260509182130 | 67 | 22 | 1.0 | 3.0 | 0.00 | 0.00 | 0.00 | 53 | 1012.0 |
| 20260509181602 | 67 | 28 | 1.0 | 3.0 | 0.00 | 0.00 | 0.00 | 52 | 1011.9 |
| 20260509181102 | 68 | 6 | 1.0 | 4.0 | 0.00 | 0.00 | 0.00 | 51 | 1011.9 |
| 20260509180603 | 68 | 14 | 1.0 | 4.0 | 0.00 | 0.00 | 0.00 | 52 | 1011.8 |
| 20260509180103 | 69 | 12 | 1.0 | 3.0 | 0.00 | 0.00 | 0.00 | 52 | 1011.7 |
| 20260509175603 | 69 | 22 | 1.0 | 4.0 | 0.00 | 0.00 | 0.00 | 51 | 1011.7 |
| 20260509175032 | 69 | 1 | 1.0 | 4.0 | 0.00 | 0.00 | 0.00 | 50 | 1011.7 |
| 20260509174531 | 69 | 5 | 1.0 | 3.0 | 0.00 | 0.00 | 0.00 | 49 | 1011.7 |
| 20260509174002 | 69 | 1 | 1.0 | 5.0 | 0.00 | 0.00 | 0.00 | 47 | 1011.7 |
| 20260509173506 | 69 | 60 | 1.0 | 5.0 | 0.00 | 0.00 | 0.00 | 49 | 1011.8 |
| 20260509173002 | 69 | 75 | 2.0 | 5.0 | 0.00 | 0.00 | 0.00 | 48 | 1011.8 |
| 20260509172431 | 70 | 116 | 2.0 | 5.0 | 0.00 | 0.00 | 0.00 | 48 | 1011.8 |
| 20260509171930 | 70 | 67 | 2.0 | 5.0 | 0.00 | 0.00 | 0.00 | 47 | 1011.7 |
| 20260509171427 | 71 | 111 | 2.0 | 5.0 | 0.00 | 0.00 | 0.00 | 46 | 1011.7 |
| 20260509171149 | 71 | 69 | 1.0 | 4.0 | 0.00 | 0.00 | 0.00 | 45 | 1011.7 |
| 20260509170624 | 71 | 250 | 1.0 | 2.0 | 0.00 | 0.00 | 0.00 | 45 | 1011.7 |
| 20260509165904 | 71 | 254 | 1.0 | 6.0 | 0.00 | 0.00 | 0.00 | 47 | 1011.7 |
| 20260509165332 | 71 | 23 | 1.0 | 2.0 | 0.00 | 0.00 | 0.00 | 45 | 1011.6 |
| 20260509165057 | 71 | 1 | 1.0 | 6.0 | 0.00 | 0.00 | 0.00 | 46 | 1011.7 |
| 20260509164532 | 71 | 94 | 1.0 | 4.0 | 0.00 | 0.00 | 0.00 | 46 | 1011.7 |
| 20260509163802 | 71 | 89 | 2.0 | 6.0 | 0.00 | 0.00 | 0.00 | 46 | 1011.7 |
| 20260509163303 | 71 | 1 | 2.0 | 6.0 | 0.00 | 0.00 | 0.00 | 46 | 1011.8 |
| 20260509162802 | 71 | 311 | 2.0 | 4.0 | 0.00 | 0.00 | 0.00 | 47 | 1011.8 |
| 20260509162306 | 71 | 70 | 2.0 | 4.0 | 0.00 | 0.00 | 0.00 | 47 | 1011.8 |
| 20260509161801 | 71 | 122 | 2.0 | 5.0 | 0.00 | 0.00 | 0.00 | 46 | 1011.8 |
| 20260509161304 | 71 | 49 | 2.0 | 5.0 | 0.00 | 0.00 | 0.00 | 48 | 1011.9 |
| 20260509160957 | 71 | 108 | 2.0 | 7.0 | 0.00 | 0.00 | 0.00 | 45 | 1011.9 |
| 20260509160454 | 72 | 66 | 1.0 | 7.0 | 0.00 | 0.00 | 0.00 | 44 | 1011.9 |
| 20260509155946 | 72 | 68 | 1.0 | 4.0 | 0.00 | 0.00 | 0.00 | 45 | 1012.0 |
| 20260509155452 | 71 | 256 | 2.0 | 5.0 | 0.00 | 0.00 | 0.00 | 45 | 1012.1 |
| 20260509154703 | 71 | 51 | 2.0 | 5.0 | 0.00 | 0.00 | 0.00 | 45 | 1012.1 |
| 20260509154430 | 71 | 148 | 2.0 | 5.0 | 0.00 | 0.00 | 0.00 | 44 | 1012.1 |
| 20260509153930 | 72 | 122 | 2.0 | 5.0 | 0.00 | 0.00 | 0.00 | 43 | 1012.2 |
| 20260509153146 | 72 | 290 | 2.0 | 6.0 | 0.00 | 0.00 | 0.00 | 47 | 1012.1 |
| 20260509152637 | 72 | 21 | 2.0 | 6.0 | 0.00 | 0.00 | 0.00 | 47 | 1012.2 |
| 20260509152131 | 71 | 1 | 2.0 | 6.0 | 0.00 | 0.00 | 0.00 | 46 | 1012.3 |
| 20260509151630 | 71 | 125 | 2.0 | 6.0 | 0.00 | 0.00 | 0.00 | 45 | 1012.3 |
| 20260509151130 | 71 | 36 | 1.0 | 6.0 | 0.00 | 0.00 | 0.00 | 47 | 1012.3 |
| 20260509150632 | 71 | 1 | 2.0 | 6.0 | 0.00 | 0.00 | 0.00 | 45 | 1012.3 |
| 20260509150130 | 71 | 348 | 2.0 | 5.0 | 0.00 | 0.00 | 0.00 | 45 | 1012.3 |
| 20260509145632 | 71 | 88 | 2.0 | 5.0 | 0.00 | 0.00 | 0.00 | 45 | 1012.4 |
| 20260509145104 | 71 | 304 | 1.0 | 4.0 | 0.00 | 0.00 | 0.00 | 46 | 1012.4 |
| 20260509144603 | 70 | 264 | 2.0 | 5.0 | 0.00 | 0.00 | 0.00 | 50 | 1012.4 |
| 20260509144102 | 70 | 141 | 3.0 | 5.0 | 0.00 | 0.00 | 0.00 | 46 | 1012.5 |
| 20260509143602 | 71 | 85 | 3.0 | 5.0 | 0.00 | 0.00 | 0.00 | 46 | 1012.5 |
| 20260509143104 | 71 | 352 | 2.0 | 5.0 | 0.00 | 0.00 | 0.00 | 48 | 1012.6 |
| 20260509143048 | 71 | 24 | 2.0 | 4.0 | 0.00 | 0.00 | 0.00 | 47 | 1012.6 |
| 20260509142102 | 70 | 293 | 2.0 | 7.0 | 0.00 | 0.00 | 0.00 | 50 | 1012.6 |
| 20260509141531 | 70 | 57 | 2.0 | 7.0 | 0.00 | 0.00 | 0.00 | 47 | 1012.7 |
| 20260509141030 | 70 | 248 | 1.0 | 5.0 | 0.00 | 0.00 | 0.00 | 47 | 1012.7 |
| 20260509140503 | 70 | 66 | 2.0 | 5.0 | 0.00 | 0.00 | 0.00 | 47 | 1012.7 |
| 20260509140002 | 69 | 91 | 2.0 | 5.0 | 0.00 | 0.00 | 0.00 | 46 | 1012.9 |
| 20260509135504 | 70 | 138 | 2.0 | 5.0 | 0.00 | 0.00 | 0.00 | 46 | 1012.9 |
| 20260509135003 | 70 | 52 | 1.0 | 4.0 | 0.00 | 0.00 | 0.00 | 48 | 1013.0 |
| 20260509134502 | 70 | 88 | 2.0 | 4.0 | 0.00 | 0.00 | 0.00 | 45 | 1013.0 |
| 20260509133931 | 70 | 234 | 2.0 | 5.0 | 0.00 | 0.00 | 0.00 | 46 | 1013.1 |
| 20260509133431 | 70 | 36 | 2.0 | 5.0 | 0.00 | 0.00 | 0.00 | 47 | 1013.2 |
| 20260509132903 | 70 | 99 | 2.0 | 6.0 | 0.00 | 0.00 | 0.00 | 46 | 1013.3 |
| 20260509132402 | 70 | 154 | 2.0 | 7.0 | 0.00 | 0.00 | 0.00 | 45 | 1013.3 |
| 20260509131831 | 70 | 1 | 2.0 | 7.0 | 0.00 | 0.00 | 0.00 | 46 | 1013.4 |
| 20260509131327 | 70 | 25 | 2.0 | 5.0 | 0.00 | 0.00 | 0.00 | 46 | 1013.4 |
| 20260509130803 | 69 | 15 | 2.0 | 7.0 | 0.00 | 0.00 | 0.00 | 46 | 1013.5 |
| 20260509130304 | 69 | 1 | 2.0 | 7.0 | 0.00 | 0.00 | 0.00 | 46 | 1013.5 |
| 20260509125807 | 69 | 122 | 2.0 | 7.0 | 0.00 | 0.00 | 0.00 | 48 | 1013.6 |
| 20260509125237 | 69 | 75 | 3.0 | 7.0 | 0.00 | 0.00 | 0.00 | 47 | 1013.6 |
| 20260509124737 | 69 | 11 | 3.0 | 7.0 | 0.00 | 0.00 | 0.00 | 47 | 1013.7 |
| 20260509124209 | 69 | 33 | 2.0 | 7.0 | 0.00 | 0.00 | 0.00 | 48 | 1013.7 |
| 20260509123707 | 69 | 7 | 3.0 | 8.0 | 0.00 | 0.00 | 0.00 | 48 | 1013.7 |
| 20260509123151 | 68 | 152 | 3.0 | 8.0 | 0.00 | 0.00 | 0.00 | 50 | 1013.7 |
| 20260509122640 | 69 | 1 | 3.0 | 7.0 | 0.00 | 0.00 | 0.00 | 50 | 1013.7 |
| 20260509122137 | 69 | 3 | 3.0 | 7.0 | 0.00 | 0.00 | 0.00 | 48 | 1013.8 |
| 20260509121631 | 69 | 8 | 3.0 | 7.0 | 0.00 | 0.00 | 0.00 | 49 | 1014.0 |
| 20260509121357 | 69 | 47 | 2.0 | 6.0 | 0.00 | 0.00 | 0.00 | 48 | 1014.0 |
| 20260509120633 | 69 | 3 | 2.0 | 6.0 | 0.00 | 0.00 | 0.00 | 48 | 1014.1 |
| 20260509120132 | 69 | 86 | 2.0 | 6.0 | 0.00 | 0.00 | 0.00 | 49 | 1014.1 |
| 20260509115630 | 69 | 118 | 1.0 | 6.0 | 0.00 | 0.00 | 0.00 | 48 | 1014.2 |
| 20260509115130 | 69 | 103 | 2.0 | 6.0 | 0.00 | 0.00 | 0.00 | 50 | 1014.1 |
| 20260509114629 | 69 | 316 | 2.0 | 6.0 | 0.00 | 0.00 | 0.00 | 51 | 1014.2 |
| 20260509114328 | 69 | 189 | 2.0 | 11.0 | 0.00 | 0.00 | 0.00 | 48 | 1014.3 |
| 20260509113603 | 68 | 79 | 2.0 | 11.0 | 0.00 | 0.00 | 0.00 | 50 | 1014.4 |
| 20260509113031 | 68 | 96 | 2.0 | 6.0 | 0.00 | 0.00 | 0.00 | 51 | 1014.4 |
| 20260509112530 | 68 | 101 | 2.0 | 4.0 | 0.00 | 0.00 | 0.00 | 51 | 1014.5 |
| 20260509112255 | 68 | 359 | 2.0 | 6.0 | 0.00 | 0.00 | 0.00 | 51 | 1014.6 |
| 20260509111758 | 68 | 0 | 1.0 | 5.0 | 0.00 | 0.00 | 0.00 | 51 | 1014.6 |
| 20260509111030 | 67 | 51 | 2.0 | 5.0 | 0.00 | 0.00 | 0.00 | 51 | 1014.7 |
| 20260509111014 | 67 | 57 | 3.0 | 5.0 | 0.00 | 0.00 | 0.00 | 51 | 1014.7 |
| 20260509110522 | 67 | 1 | 3.0 | 5.0 | 0.00 | 0.00 | 0.00 | 51 | 1014.8 |
| 20260509105530 | 67 | 1 | 3.0 | 7.0 | 0.00 | 0.00 | 0.00 | 52 | 1014.8 |
| 20260509105030 | 67 | 37 | 3.0 | 7.0 | 0.00 | 0.00 | 0.00 | 52 | 1014.9 |
| 20260509104530 | 67 | 138 | 2.0 | 7.0 | 0.00 | 0.00 | 0.00 | 52 | 1014.9 |
| 20260509104032 | 67 | 26 | 2.0 | 7.0 | 0.00 | 0.00 | 0.00 | 53 | 1015.0 |
| 20260509103530 | 67 | 81 | 2.0 | 6.0 | 0.00 | 0.00 | 0.00 | 54 | 1015.0 |
| 20260509103030 | 67 | 335 | 2.0 | 6.0 | 0.00 | 0.00 | 0.00 | 54 | 1015.1 |
| 20260509102528 | 67 | 27 | 2.0 | 6.0 | 0.00 | 0.00 | 0.00 | 53 | 1015.1 |
| 20260509102025 | 67 | 114 | 2.0 | 5.0 | 0.00 | 0.00 | 0.00 | 54 | 1015.1 |
| 20260509101725 | 66 | 151 | 2.0 | 5.0 | 0.00 | 0.00 | 0.00 | 57 | 1015.1 |
| 20260509101227 | 66 | 359 | 3.0 | 8.0 | 0.00 | 0.00 | 0.00 | 58 | 1015.2 |
| 20260509100657 | 66 | 120 | 3.0 | 8.0 | 0.00 | 0.00 | 0.00 | 56 | 1015.2 |
| 20260509095924 | 67 | 133 | 2.0 | 6.0 | 0.00 | 0.00 | 0.00 | 58 | 1015.2 |
| 20260509095419 | 66 | 314 | 2.0 | 5.0 | 0.00 | 0.00 | 0.00 | 59 | 1015.2 |
| 20260509094911 | 66 | 68 | 2.0 | 5.0 | 0.00 | 0.00 | 0.00 | 55 | 1015.2 |
| 20260509094404 | 66 | 26 | 2.0 | 6.0 | 0.00 | 0.00 | 0.00 | 59 | 1015.3 |
| 20260509094100 | 66 | 0 | 2.0 | 6.0 | 0.00 | 0.00 | 0.00 | 60 | 1015.3 |
| 20260509093332 | 65 | 19 | 2.0 | 6.0 | 0.00 | 0.00 | 0.00 | 62 | 1015.2 |
| 20260509092830 | 65 | 96 | 2.0 | 6.0 | 0.00 | 0.00 | 0.00 | 61 | 1015.2 |
| 20260509092335 | 65 | 129 | 2.0 | 6.0 | 0.00 | 0.00 | 0.00 | 62 | 1015.2 |
| 20260509091831 | 65 | 94 | 2.0 | 6.0 | 0.00 | 0.00 | 0.00 | 61 | 1015.3 |
| 20260509091332 | 64 | 134 | 2.0 | 6.0 | 0.00 | 0.00 | 0.00 | 63 | 1015.3 |
| 20260509090830 | 64 | 124 | 2.0 | 6.0 | 0.00 | 0.00 | 0.00 | 64 | 1015.2 |
| 20260509090330 | 64 | 98 | 2.0 | 6.0 | 0.00 | 0.00 | 0.00 | 64 | 1015.3 |
| 20260509085826 | 64 | 2 | 2.0 | 6.0 | 0.00 | 0.00 | 0.00 | 63 | 1015.3 |
| 20260509085323 | 64 | 68 | 2.0 | 6.0 | 0.00 | 0.00 | 0.00 | 63 | 1015.3 |
| 20260509084821 | 64 | 56 | 2.0 | 7.0 | 0.00 | 0.00 | 0.00 | 67 | 1015.3 |
| 20260509084302 | 63 | 104 | 2.0 | 7.0 | 0.00 | 0.00 | 0.00 | 67 | 1015.4 |
| 20260509083802 | 63 | 20 | 2.0 | 6.0 | 0.00 | 0.00 | 0.00 | 67 | 1015.4 |
| 20260509083229 | 63 | 90 | 2.0 | 5.0 | 0.00 | 0.00 | 0.00 | 67 | 1015.5 |
| 20260509082729 | 63 | 98 | 2.0 | 4.0 | 0.00 | 0.00 | 0.00 | 67 | 1015.5 |
| 20260509082231 | 62 | 329 | 2.0 | 6.0 | 0.00 | 0.00 | 0.00 | 68 | 1015.5 |
| 20260509081729 | 62 | 120 | 1.0 | 5.0 | 0.00 | 0.00 | 0.00 | 68 | 1015.5 |
| 20260509081220 | 62 | 95 | 1.0 | 5.0 | 0.00 | 0.00 | 0.00 | 69 | 1015.5 |
| 20260509080702 | 62 | 109 | 1.0 | 4.0 | 0.00 | 0.00 | 0.00 | 69 | 1015.6 |
| 20260509080137 | 62 | 114 | 1.0 | 4.0 | 0.00 | 0.00 | 0.00 | 70 | 1015.6 |
| 20260509075633 | 62 | 78 | 1.0 | 3.0 | 0.00 | 0.00 | 0.00 | 70 | 1015.6 |
| 20260509075130 | 61 | 37 | 1.0 | 3.0 | 0.00 | 0.00 | 0.00 | 71 | 1015.6 |
| 20260509074631 | 61 | 29 | 1.0 | 3.0 | 0.00 | 0.00 | 0.00 | 73 | 1015.5 |
| 20260509074130 | 60 | 115 | 1.0 | 4.0 | 0.00 | 0.00 | 0.00 | 71 | 1015.5 |
| 20260509073629 | 60 | 42 | 1.0 | 4.0 | 0.00 | 0.00 | 0.00 | 72 | 1015.5 |
| 20260509073101 | 60 | 88 | 1.0 | 4.0 | 0.00 | 0.00 | 0.00 | 74 | 1015.5 |
| 20260509072601 | 60 | 71 | 1.0 | 4.0 | 0.00 | 0.00 | 0.00 | 74 | 1015.5 |
| 20260509072102 | 59 | 107 | 0.0 | 3.0 | 0.00 | 0.00 | 0.00 | 74 | 1015.5 |
| 20260509071601 | 59 | 76 | 1.0 | 3.0 | 0.00 | 0.00 | 0.00 | 75 | 1015.5 |
| 20260509071101 | 58 | 74 | 1.0 | 3.0 | 0.00 | 0.00 | 0.00 | 76 | 1015.5 |
| 20260509070530 | 58 | 51 | 0.0 | 3.0 | 0.00 | 0.00 | 0.00 | 78 | 1015.5 |
| 20260509070017 | 57 | 110 | 0.0 | 1.0 | 0.00 | 0.00 | 0.00 | 80 | 1015.5 |
| 20260509065501 | 56 | 110 | 0.0 | 0.0 | 0.00 | 0.00 | 0.00 | 81 | 1015.5 |
| 20260509065000 | 56 | 110 | 0.0 | 2.0 | 0.00 | 0.00 | 0.00 | 82 | 1015.5 |
| 20260509064501 | 56 | 110 | 0.0 | 2.0 | 0.00 | 0.00 | 0.00 | 82 | 1015.4 |
| 20260509064000 | 55 | 89 | 0.0 | 2.0 | 0.00 | 0.00 | 0.00 | 83 | 1015.3 |
| 20260509063503 | 54 | 94 | 0.0 | 0.0 | 0.00 | 0.00 | 0.00 | 88 | 1015.4 |
| 20260509062931 | 53 | 130 | 0.0 | 0.0 | 0.00 | 0.00 | 0.00 | 89 | 1015.2 |
| 20260509062425 | 53 | 130 | 0.0 | 0.0 | 0.00 | 0.00 | 0.00 | 90 | 1015.3 |
| 20260509061920 | 53 | 130 | 0.0 | 0.0 | 0.00 | 0.00 | 0.00 | 93 | 1015.3 |
| 20260509061403 | 51 | 130 | 0.0 | 0.0 | 0.00 | 0.00 | 0.00 | 96 | 1015.3 |
| 20260509060901 | 50 | 130 | 0.0 | 0.0 | 0.00 | 0.00 | 0.00 | 97 | 1015.4 |
| 20260509060402 | 49 | 130 | 0.0 | 0.0 | 0.00 | 0.00 | 0.00 | 97 | 1015.4 |
| 20260509055830 | 48 | 130 | 0.0 | 0.0 | 0.00 | 0.00 | 0.00 | 97 | 1015.4 |
| 20260509055331 | 48 | 130 | 0.0 | 0.0 | 0.00 | 0.00 | 0.00 | 98 | 1015.4 |
| 20260509055042 | 48 | 130 | 0.0 | 0.0 | 0.00 | 0.00 | 0.00 | 98 | 1015.4 |
| 20260509054318 | 47 | 130 | 0.0 | 0.0 | 0.00 | 0.00 | 0.00 | 98 | 1015.4 |
| 20260509053803 | 46 | 130 | 0.0 | 0.0 | 0.00 | 0.00 | 0.00 | 98 | 1015.4 |
| 20260509053303 | 44 | 130 | 0.0 | 0.0 | 0.00 | 0.00 | 0.00 | 98 | 1015.4 |
| 20260509052801 | 43 | 130 | 0.0 | 0.0 | 0.00 | 0.00 | 0.00 | 97 | 1015.4 |
| 20260509052525 | 42 | 130 | 0.0 | 0.0 | 0.00 | 0.00 | 0.00 | 97 | 1015.3 |
| 20260509051803 | 42 | 130 | 0.0 | 0.0 | 0.00 | 0.00 | 0.00 | 97 | 1015.3 |
| 20260509051301 | 41 | 130 | 0.0 | 0.0 | 0.00 | 0.00 | 0.00 | 97 | 1015.3 |
| 20260509050744 | 41 | 130 | 0.0 | 0.0 | 0.00 | 0.00 | 0.00 | 96 | 1015.2 |
| 20260509050229 | 41 | 130 | 0.0 | 0.0 | 0.00 | 0.00 | 0.00 | 96 | 1015.2 |
| 20260509045946 | 41 | 130 | 0.0 | 0.0 | 0.00 | 0.00 | 0.00 | 96 | 1015.1 |
| 20260509045202 | 41 | 130 | 0.0 | 0.0 | 0.00 | 0.00 | 0.00 | 96 | 1015.1 |
| 20260509044701 | 40 | 130 | 0.0 | 0.0 | 0.00 | 0.00 | 0.00 | 96 | 1015.1 |
| 20260509044400 | 40 | 130 | 0.0 | 0.0 | 0.00 | 0.00 | 0.00 | 96 | 1015.0 |
| 20260509043638 | 40 | 130 | 0.0 | 0.0 | 0.00 | 0.00 | 0.00 | 96 | 1015.1 |
| 20260509043134 | 40 | 130 | 0.0 | 0.0 | 0.00 | 0.00 | 0.00 | 96 | 1015.1 |
| 20260509042630 | 40 | 130 | 0.0 | 0.0 | 0.00 | 0.00 | 0.00 | 96 | 1015.1 |
| 20260509042129 | 40 | 130 | 0.0 | 0.0 | 0.00 | 0.00 | 0.00 | 96 | 1015.0 |
| 20260509041602 | 40 | 130 | 0.0 | 0.0 | 0.00 | 0.00 | 0.00 | 96 | 1015.0 |
| 20260509041029 | 40 | 130 | 0.0 | 0.0 | 0.00 | 0.00 | 0.00 | 95 | 1015.0 |
| 20260509040530 | 40 | 130 | 0.0 | 0.0 | 0.00 | 0.00 | 0.00 | 95 | 1015.0 |
| 20260509040240 | 40 | 130 | 0.0 | 0.0 | 0.00 | 0.00 | 0.00 | 95 | 1015.0 |
| 20260509040230 | 40 | 130 | 0.0 | 0.0 | 0.00 | 0.00 | 0.00 | 95 | 1015.0 |
| 20260509035227 | 40 | 130 | 0.0 | 0.0 | 0.00 | 0.00 | 0.00 | 95 | 1015.0 |
| 20260509034651 | 40 | 130 | 0.0 | 0.0 | 0.00 | 0.00 | 0.00 | 95 | 1015.0 |
| 20260509033930 | 41 | 130 | 0.0 | 0.0 | 0.00 | 0.00 | 0.00 | 95 | 1015.1 |
| 20260509033411 | 41 | 130 | 0.0 | 0.0 | 0.00 | 0.00 | 0.00 | 95 | 1015.1 |
| 20260509032903 | 41 | 130 | 0.0 | 0.0 | 0.00 | 0.00 | 0.00 | 95 | 1015.0 |
| 20260509032400 | 41 | 130 | 0.0 | 0.0 | 0.00 | 0.00 | 0.00 | 95 | 1015.0 |
| 20260509031901 | 41 | 130 | 0.0 | 0.0 | 0.00 | 0.00 | 0.00 | 95 | 1015.0 |
| 20260509031627 | 41 | 130 | 0.0 | 0.0 | 0.00 | 0.00 | 0.00 | 95 | 1015.0 |
| 20260509030902 | 41 | 130 | 0.0 | 0.0 | 0.00 | 0.00 | 0.00 | 95 | 1015.1 |
| 20260509030330 | 41 | 130 | 0.0 | 0.0 | 0.00 | 0.00 | 0.00 | 95 | 1015.2 |
| 20260509025829 | 41 | 130 | 0.0 | 0.0 | 0.00 | 0.00 | 0.00 | 95 | 1015.2 |
| 20260509025306 | 41 | 130 | 0.0 | 0.0 | 0.00 | 0.00 | 0.00 | 95 | 1015.3 |
| 20260509025031 | 41 | 130 | 0.0 | 0.0 | 0.00 | 0.00 | 0.00 | 95 | 1015.3 |
| 20260509024229 | 41 | 130 | 0.0 | 0.0 | 0.00 | 0.00 | 0.00 | 95 | 1015.3 |
| 20260509023723 | 42 | 130 | 0.0 | 0.0 | 0.00 | 0.00 | 0.00 | 95 | 1015.3 |
| 20260509023202 | 42 | 130 | 0.0 | 0.0 | 0.00 | 0.00 | 0.00 | 95 | 1015.3 |
| 20260509022701 | 42 | 130 | 0.0 | 0.0 | 0.00 | 0.00 | 0.00 | 95 | 1015.3 |
| 20260509022356 | 42 | 130 | 0.0 | 0.0 | 0.00 | 0.00 | 0.00 | 95 | 1015.2 |
| 20260509021631 | 42 | 130 | 0.0 | 0.0 | 0.00 | 0.00 | 0.00 | 95 | 1015.2 |
| 20260509021129 | 42 | 130 | 0.0 | 0.0 | 0.00 | 0.00 | 0.00 | 95 | 1015.2 |
| 20260509020602 | 42 | 130 | 0.0 | 0.0 | 0.00 | 0.00 | 0.00 | 95 | 1015.2 |
| 20260509020100 | 42 | 130 | 0.0 | 0.0 | 0.00 | 0.00 | 0.00 | 95 | 1015.2 |
| 20260509015603 | 42 | 130 | 0.0 | 0.0 | 0.00 | 0.00 | 0.00 | 94 | 1015.2 |
| 20260509015101 | 42 | 130 | 0.0 | 0.0 | 0.00 | 0.00 | 0.00 | 94 | 1015.2 |
| 20260509014601 | 42 | 130 | 0.0 | 0.0 | 0.00 | 0.00 | 0.00 | 94 | 1015.2 |
| 20260509014258 | 42 | 130 | 0.0 | 0.0 | 0.00 | 0.00 | 0.00 | 94 | 1015.3 |
| 20260509013529 | 42 | 130 | 0.0 | 0.0 | 0.00 | 0.00 | 0.00 | 94 | 1015.3 |
| 20260509013035 | 42 | 130 | 0.0 | 0.0 | 0.00 | 0.00 | 0.00 | 94 | 1015.3 |
| 20260509012533 | 43 | 130 | 0.0 | 0.0 | 0.00 | 0.00 | 0.00 | 94 | 1015.3 |
| 20260509012029 | 43 | 130 | 0.0 | 0.0 | 0.00 | 0.00 | 0.00 | 94 | 1015.3 |
| 20260509012011 | 43 | 130 | 0.0 | 0.0 | 0.00 | 0.00 | 0.00 | 94 | 1015.3 |
| 20260509011030 | 43 | 130 | 0.0 | 0.0 | 0.00 | 0.00 | 0.00 | 94 | 1015.3 |
| 20260509010530 | 43 | 130 | 0.0 | 0.0 | 0.00 | 0.00 | 0.00 | 94 | 1015.4 |
| 20260509010002 | 43 | 130 | 0.0 | 0.0 | 0.00 | 0.00 | 0.00 | 94 | 1015.4 |
| 20260509005503 | 43 | 130 | 0.0 | 0.0 | 0.00 | 0.00 | 0.00 | 94 | 1015.4 |
| 20260509005002 | 43 | 130 | 0.0 | 0.0 | 0.00 | 0.00 | 0.00 | 94 | 1015.4 |
| 20260509004431 | 44 | 130 | 0.0 | 0.0 | 0.00 | 0.00 | 0.00 | 94 | 1015.4 |
| 20260509003930 | 44 | 130 | 0.0 | 0.0 | 0.00 | 0.00 | 0.00 | 94 | 1015.3 |
| 20260509003428 | 44 | 130 | 0.0 | 0.0 | 0.00 | 0.00 | 0.00 | 94 | 1015.4 |
| 20260509002923 | 44 | 130 | 0.0 | 0.0 | 0.00 | 0.00 | 0.00 | 94 | 1015.3 |
| 20260509002906 | 44 | 130 | 0.0 | 0.0 | 0.00 | 0.00 | 0.00 | 94 | 1015.3 |
| 20260509001917 | 44 | 130 | 0.0 | 0.0 | 0.00 | 0.00 | 0.00 | 93 | 1015.3 |
| 20260509001416 | 44 | 130 | 0.0 | 0.0 | 0.00 | 0.00 | 0.00 | 93 | 1015.3 |
| 20260509000903 | 44 | 130 | 0.0 | 0.0 | 0.00 | 0.00 | 0.00 | 93 | 1015.4 |
| 20260509000403 | 44 | 130 | 0.0 | 0.0 | 0.00 | 0.00 | 0.00 | 93 | 1015.4 |
| 20260508235831 | 44 | 130 | 0.0 | 0.0 | 0.00 | 0.00 | 0.00 | 93 | 1015.3 |
| 20260508235330 | 44 | 130 | 0.0 | 0.0 | 0.00 | 0.00 | 0.00 | 93 | 1015.4 |
| 20260508234830 | 45 | 130 | 0.0 | 0.0 | 0.00 | 0.00 | 0.00 | 93 | 1015.4 |
| 20260508234330 | 45 | 130 | 0.0 | 0.0 | 0.00 | 0.00 | 0.00 | 93 | 1015.5 |
| 20260508233830 | 45 | 130 | 0.0 | 0.0 | 0.00 | 0.00 | 0.00 | 93 | 1015.5 |
| 20260508233329 | 45 | 130 | 0.0 | 0.0 | 0.00 | 0.00 | 0.00 | 93 | 1015.5 |
| 20260508232830 | 45 | 130 | 0.0 | 0.0 | 0.00 | 0.00 | 0.00 | 93 | 1015.5 |
| 20260508232330 | 45 | 130 | 0.0 | 0.0 | 0.00 | 0.00 | 0.00 | 93 | 1015.6 |
| 20260508231825 | 45 | 130 | 0.0 | 0.0 | 0.00 | 0.00 | 0.00 | 93 | 1015.5 |
| 20260508231301 | 46 | 130 | 0.0 | 0.0 | 0.00 | 0.00 | 0.00 | 93 | 1015.6 |
| 20260508230801 | 46 | 130 | 0.0 | 0.0 | 0.00 | 0.00 | 0.00 | 93 | 1015.5 |
| 20260508230532 | 46 | 130 | 0.0 | 0.0 | 0.00 | 0.00 | 0.00 | 93 | 1015.5 |
| 20260508225801 | 46 | 130 | 0.0 | 0.0 | 0.00 | 0.00 | 0.00 | 92 | 1015.5 |
| 20260508225301 | 46 | 130 | 0.0 | 0.0 | 0.00 | 0.00 | 0.00 | 92 | 1015.5 |
| 20260508224729 | 46 | 130 | 0.0 | 0.0 | 0.00 | 0.00 | 0.00 | 92 | 1015.5 |
| 20260508224228 | 46 | 130 | 0.0 | 0.0 | 0.00 | 0.00 | 0.00 | 92 | 1015.4 |
| 20260508223730 | 46 | 130 | 0.0 | 0.0 | 0.00 | 0.00 | 0.00 | 92 | 1015.4 |
| 20260508223452 | 46 | 130 | 0.0 | 0.0 | 0.00 | 0.00 | 0.00 | 92 | 1015.4 |
| 20260508222735 | 47 | 130 | 0.0 | 0.0 | 0.00 | 0.00 | 0.00 | 92 | 1015.3 |
| 20260508222224 | 47 | 130 | 0.0 | 0.0 | 0.00 | 0.00 | 0.00 | 91 | 1015.3 |
| 20260508222205 | 47 | 130 | 0.0 | 0.0 | 0.00 | 0.00 | 0.00 | 91 | 1015.3 |
| 20260508221208 | 47 | 130 | 0.0 | 0.0 | 0.00 | 0.00 | 0.00 | 91 | 1015.3 |
| 20260508220703 | 47 | 130 | 0.0 | 0.0 | 0.00 | 0.00 | 0.00 | 91 | 1015.3 |
| 20260508220151 | 47 | 130 | 0.0 | 0.0 | 0.00 | 0.00 | 0.00 | 91 | 1015.3 |
| 20260508215645 | 47 | 130 | 0.0 | 0.0 | 0.00 | 0.00 | 0.00 | 91 | 1015.3 |
| 20260508215142 | 48 | 130 | 0.0 | 0.0 | 0.00 | 0.00 | 0.00 | 91 | 1015.3 |
| 20260508214902 | 48 | 130 | 0.0 | 0.0 | 0.00 | 0.00 | 0.00 | 90 | 1015.2 |
| 20260508214134 | 48 | 130 | 0.0 | 0.0 | 0.00 | 0.00 | 0.00 | 90 | 1015.2 |
| 20260508213607 | 48 | 130 | 0.0 | 0.0 | 0.00 | 0.00 | 0.00 | 89 | 1015.3 |
| 20260508213035 | 48 | 130 | 0.0 | 0.0 | 0.00 | 0.00 | 0.00 | 89 | 1015.3 |
| 20260508212534 | 49 | 130 | 0.0 | 0.0 | 0.00 | 0.00 | 0.00 | 89 | 1015.2 |
| 20260508212006 | 49 | 130 | 0.0 | 0.0 | 0.00 | 0.00 | 0.00 | 88 | 1015.2 |
| 20260508211507 | 49 | 130 | 0.0 | 0.0 | 0.00 | 0.00 | 0.00 | 88 | 1015.2 |
| 20260508211412 | 49 | 130 | 0.0 | 0.0 | 0.00 | 0.00 | 0.00 | 88 | 1015.2 |
| 20260508210435 | 49 | 130 | 0.0 | 0.0 | 0.00 | 0.00 | 0.00 | 88 | 1015.3 |
| 20260508205931 | 50 | 130 | 0.0 | 0.0 | 0.00 | 0.00 | 0.00 | 87 | 1015.3 |
| 20260508205406 | 50 | 130 | 0.0 | 0.0 | 0.00 | 0.00 | 0.00 | 87 | 1015.2 |
| 20260508204906 | 50 | 130 | 0.0 | 0.0 | 0.00 | 0.00 | 0.00 | 86 | 1015.2 |
| 20260508204820 | 50 | 130 | 0.0 | 0.0 | 0.00 | 0.00 | 0.00 | 86 | 1015.2 |
| 20260508203832 | 51 | 130 | 0.0 | 0.0 | 0.00 | 0.00 | 0.00 | 85 | 1015.2 |
| 20260508203330 | 51 | 130 | 0.0 | 0.0 | 0.00 | 0.00 | 0.00 | 85 | 1015.2 |
| 20260508202829 | 51 | 130 | 0.0 | 0.0 | 0.00 | 0.00 | 0.00 | 85 | 1015.1 |
| 20260508202329 | 51 | 130 | 0.0 | 0.0 | 0.00 | 0.00 | 0.00 | 84 | 1015.1 |
| 20260508201829 | 52 | 130 | 0.0 | 0.0 | 0.00 | 0.00 | 0.00 | 84 | 1015.1 |
| 20260508201331 | 52 | 130 | 0.0 | 0.0 | 0.00 | 0.00 | 0.00 | 83 | 1015.1 |
| 20260508200829 | 52 | 130 | 0.0 | 0.0 | 0.00 | 0.00 | 0.00 | 82 | 1015.0 |
| 20260508200330 | 53 | 130 | 0.0 | 0.0 | 0.00 | 0.00 | 0.00 | 82 | 1014.9 |
| 20260508200045 | 53 | 130 | 0.0 | 0.0 | 0.00 | 0.00 | 0.00 | 81 | 1015.0 |
| 20260508195312 | 54 | 130 | 0.0 | 0.0 | 0.00 | 0.00 | 0.00 | 80 | 1014.9 |